Location: Brno
(49.2000°N, 16.6330°E)
Time: 14:45:50
(UTC+02:00)

ISS - Pass Details

Date: 24 April 2026
Orbit: 414 x 424 km, 51.6° (Epoch: 18 May)

Event Time Altitude Azimuth Distance (km) Brightness Sun altitude
Exits shadow 03:57:40 31° 189° (S) 756 -2.9 -15.7°
Maximum altitude 03:58:38 40° 148° (SSE) 637 -3.0 -15.6°
Drops below altitude 10° 04:01:49 10° 78° (ENE) 1,506 0.0 -15.2°
Sets 04:04:00 0° 71° (ENE) 2,375 1.4 -14.9°
